Weather History for Sparta, WI

Change the Weather History Date:

Thursday, October 13, 2011

  Actual Average Record
Temperature  
Mean Temperature 56 °F -  
Max Temperature 82 °F 58 °F 82 °F (2011)
Min Temperature 47 °F 37 °F 22 °F (1980)
Degree Days  
Heating Degree Days 10    
Growing Degree Days 6 (Base 50)    
Moisture  
Dew Point 51 °F    
Average Humidity 84    
Maximum Humidity 97    
Minimum Humidity 63    
Precipitation  
Precipitation 0.00 in - - ()
Sea Level Pressure  
Sea Level Pressure 29.58 in    
Wind  
Wind Speed 4 mph (WNW)    
Max Wind Speed 20 mph    
Max Gust Speed 25 mph    
Visibility 8 miles    
Events Rain    
Averages and records for this station are not official NWS values.
T = Trace of Precipitation, MM = Missing Value Source: NWS Daily Summary

Daily Weather History Graph

Daily Weather History Graph

Search for Another Location

Airport:

Trip Planner

Search our weather history database for the weather conditions in past years. The results will help you decide how hot, cold, wet, or windy it might be!

Date:

Astronomy

Oct. 13, 2011 Rise Set
Actual Time 7:14 AM CDT 6:23 PM CDT
Civil Twilight 6:45 AM CDT 6:51 PM CDT
Nautical Twilight 6:12 AM CDT 7:25 PM CDT
Astronomical Twilight 5:38 AM CDT 7:58 PM CDT
Moon 6:52 PM CDT (10/13) 8:52 AM CDT (10/13)
Length of Visible Light 12h 06m
Length of Day
11h 08m
Full, 98% of the Moon is Illuminated
Oct 13
Full
Oct 19
Last Quarter
Oct 26
New
Nov 2
First Quarter
Nov 10
Full

Hourly Weather History & Observations

Time (CDT) Temp. Dew Point Humidity Pressure Visibility Wind Dir Wind Speed Gust Speed Precip Events Conditions
12:15 AM 57.7 °F 56.7 °F 96% 29.63 in 7.0 mi East 3.5 mph - N/A Rain Light Rain
12:35 AM 57.7 °F 56.7 °F 96% 29.62 in 7.0 mi Calm Calm - N/A   Overcast
1:15 AM 57.6 °F 56.5 °F 96% 29.61 in 7.0 mi ENE 4.6 mph - N/A   Overcast
1:35 AM 57.6 °F 56.5 °F 96% 29.61 in 7.0 mi Calm Calm - N/A   Overcast
1:55 AM 57.9 °F 56.7 °F 96% 29.61 in 10.0 mi East 4.6 mph - N/A   Overcast
2:15 AM 58.1 °F 56.7 °F 95% 29.60 in 7.0 mi Calm Calm - N/A   Overcast
2:35 AM 58.1 °F 56.7 °F 95% 29.60 in 10.0 mi Calm Calm - N/A   Overcast
2:55 AM 57.9 °F 56.7 °F 96% 29.58 in 7.0 mi Calm Calm - N/A Rain Light Rain
3:15 AM 57.7 °F 56.5 °F 96% 29.58 in 7.0 mi Calm Calm - N/A   Light Drizzle
3:35 AM 57.6 °F 56.5 °F 96% 29.57 in 5.0 mi Calm Calm - N/A Rain Light Rain
3:55 AM 57.4 °F 56.5 °F 97% 29.57 in 5.0 mi Calm Calm - N/A Rain Rain
4:15 AM 57.2 °F 56.3 °F 97% 29.57 in 4.0 mi Calm Calm - N/A Rain Light Rain
4:35 AM 57.2 °F 56.3 °F 97% 29.57 in 3.0 mi Calm Calm - N/A Rain Light Rain
4:55 AM 57.2 °F 56.3 °F 97% 29.57 in 3.0 mi Calm Calm - N/A   Light Drizzle
5:15 AM 57.2 °F 56.3 °F 97% 29.58 in 3.0 mi Calm Calm - N/A Rain Light Rain
5:35 AM 57.2 °F 56.3 °F 97% 29.58 in 3.0 mi NW 3.5 mph - N/A Rain Rain
5:55 AM 57.2 °F 56.5 °F 97% 29.58 in 5.0 mi NW 5.8 mph - N/A   Light Drizzle
9:15 AM 56.7 °F 54.7 °F 93% 29.58 in 10.0 mi West 6.9 mph - N/A   Overcast
9:35 AM 57.2 °F 54.3 °F 90% 29.58 in 10.0 mi West 6.9 mph - N/A   Overcast
9:55 AM 57.4 °F 54.0 °F 88% 29.58 in 10.0 mi WNW 10.4 mph - N/A   Overcast
10:35 AM 58.1 °F 53.8 °F 86% 29.58 in 10.0 mi NW 5.8 mph - N/A   Overcast
10:55 AM 58.8 °F 54.0 °F 84% 29.58 in 10.0 mi WNW 5.8 mph - N/A   Overcast
11:15 AM 59.0 °F 53.8 °F 83% 29.58 in 10.0 mi WNW 6.9 mph - N/A   Overcast
11:35 AM 59.4 °F 53.4 °F 81% 29.58 in 10.0 mi West 9.2 mph - N/A   Overcast
11:55 AM 58.8 °F 53.6 °F 83% 29.57 in 10.0 mi West 8.1 mph - N/A   Overcast
12:15 PM 58.5 °F 53.6 °F 84% 29.57 in 10.0 mi WNW 9.2 mph - N/A   Overcast
12:35 PM 58.8 °F 53.4 °F 82% 29.56 in 7.0 mi West 8.1 mph - N/A   Overcast
12:55 PM 60.6 °F 53.1 °F 76% 29.55 in 10.0 mi West 9.2 mph - N/A   Mostly Cloudy
1:15 PM 61.9 °F 52.5 °F 71% 29.55 in 10.0 mi West 11.5 mph 19.6 mph N/A   Mostly Cloudy
1:35 PM 62.2 °F 51.3 °F 67% 29.54 in 10.0 mi WNW 15.0 mph 20.7 mph N/A   Mostly Cloudy
2:15 PM 63.1 °F 50.4 °F 63% 29.53 in 10.0 mi NW 19.6 mph 25.3 mph N/A   Mostly Cloudy
3:55 PM 56.7 °F 47.5 °F 71% 29.57 in 10.0 mi West 12.7 mph 19.6 mph N/A   Overcast
5:15 PM 56.1 °F 46.4 °F 70% 29.57 in 10.0 mi West 13.8 mph 18.4 mph N/A   Overcast
6:15 PM 54.9 °F 45.3 °F 70% 29.58 in 10.0 mi West 10.4 mph 16.1 mph N/A   Mostly Cloudy
6:55 PM 53.4 °F 44.8 °F 73% 29.58 in 10.0 mi West 5.8 mph - N/A   Mostly Cloudy
7:15 PM 53.6 °F 44.8 °F 72% 29.58 in 10.0 mi WNW 9.2 mph - N/A   Overcast
7:35 PM 53.6 °F 44.8 °F 72% 29.58 in 10.0 mi West 8.1 mph - N/A   Mostly Cloudy
7:55 PM 52.9 °F 44.8 °F 74% 29.58 in 10.0 mi West 6.9 mph - N/A   Mostly Cloudy
8:35 PM 52.9 °F 44.8 °F 74% 29.58 in 10.0 mi West 9.2 mph - N/A   Mostly Cloudy
8:55 PM 52.9 °F 44.8 °F 74% 29.59 in 10.0 mi West 6.9 mph - N/A   Mostly Cloudy
9:15 PM 52.7 °F 44.6 °F 74% 29.59 in 10.0 mi West 6.9 mph - N/A   Mostly Cloudy
9:35 PM 52.2 °F 44.6 °F 75% 29.59 in 10.0 mi West 8.1 mph - N/A   Scattered Clouds
10:15 PM 51.3 °F 44.1 °F 76% 29.59 in 10.0 mi West 6.9 mph - N/A   Clear
10:35 PM 51.3 °F 43.5 °F 75% 29.59 in 10.0 mi WNW 6.9 mph - N/A   Clear
10:55 PM 51.1 °F 42.8 °F 73% 29.58 in 10.0 mi West 4.6 mph - N/A   Clear
11:35 PM 48.6 °F 42.4 °F 79% 29.58 in 10.0 mi West 4.6 mph - N/A   Clear
11:55 PM 47.8 °F 42.4 °F 82% 29.58 in 10.0 mi West 4.6 mph - N/A   Clear